Fort Providence, Northwest Territories

10:25 PM MST on November 18, 2017 (GMT -0700)
Fort Providence

Weather History for CWID - June, 2013

Change the Weather History Date:

Friday, June 28, 2013

  Actual Average Record
Temperature  
Mean Temperature 66 °F -  
Max Temperature 81 °F - - ()
Min Temperature 51 °F - - ()
Cooling Degree Days 1    
Growing Degree Days 16 (Base 50)    
Moisture  
Dew Point 51 °F    
Average Humidity 54    
Maximum Humidity 88    
Minimum Humidity 24    
Precipitation  
Precipitation 0.00 in - - ()
Sea Level Pressure  
Sea Level Pressure 30.03 in    
Wind  
Wind Speed 3 mph ()    
Max Wind Speed 7 mph    
Max Gust Speed -    
T = Trace of Precipitation, MM = Missing Value Source: Averaged Metar Reports

Daily Weather History Graph

Daily Weather History Graph

Search for Another Location

Airport or City:

Trip Planner

Search our weather history database for the weather conditions in past years. The results will help you decide how hot, cold, wet, or windy it might be!

Date:

Astronomy

Jun. 28, 2013 Rise Set
Actual Time 4:13 AM MDT 11:33 PM MDT
Civil Twilight 2:26 AM MDT 1:21 AM MDT
Nautical Twilight Sun does not rise Sun does not rise
Astronomical Twilight Sun does not rise Sun does not rise
Moon 12:33 AM MDT (6/28) 12:35 PM MDT (6/28)
Length of Visible Light 22h 55m
Length of Day
19h 19m
Waning Gibbous, 65% of the Moon is Illuminated
Jun 28
Waning Gibbous
Jun 29
Last Quarter
Jul 8
New
Jul 15
First Quarter
Jul 22
Full

Hourly Weather History & Observations

Time (MDT) Temp. Dew Point Humidity Pressure Visibility Wind Dir Wind Speed Gust Speed Precip Events Conditions
12:00 AM 63 °F 53 °F 60% 30.00 in - ESE 2.3 mph - -  
12:00 AM 62.6 °F 52.7 °F 70% 30.00 in - ESE 2.3 mph - N/A   Unknown
1:00 AM 57.9 °F 51.3 °F 78% 30.00 in - ESE 3.5 mph - N/A   Unknown
2:00 AM 54.9 °F 50.2 °F 84% 30.01 in - ENE 2.3 mph - N/A   Unknown
3:00 AM 55.2 °F 50.2 °F 83% 30.02 in - ESE 1.2 mph - N/A   Unknown
4:00 AM 52.2 °F 47.8 °F 85% 30.03 in - East 2.3 mph - N/A   Unknown
5:00 AM 51.8 °F 48.4 °F 88% 30.04 in - East 2.3 mph - N/A   Unknown
6:00 AM 55 °F 50 °F 77% 30.04 in - East 2.3 mph - -  
6:00 AM 55.0 °F 49.8 °F 83% 30.04 in - East 2.3 mph - N/A   Unknown
7:00 AM 62.8 °F 52.5 °F 69% 30.04 in - East 2.3 mph - N/A   Unknown
8:00 AM 67.5 °F 53.4 °F 61% 30.05 in - SE 2.3 mph - N/A   Unknown
9:00 AM 70.3 °F 52.5 °F 53% 30.06 in - SE 3.5 mph - N/A   Unknown
10:00 AM 70.3 °F 53.6 °F 55% 30.06 in - South 6.9 mph - N/A   Unknown
11:00 AM 73.4 °F 54.1 °F 51% 30.06 in - South 5.8 mph - N/A   Unknown
12:00 PM 77 °F 53 °F 33% 30.05 in - South 4.6 mph - -  
12:00 PM 76.6 °F 53.2 °F 44% 30.05 in - South 4.6 mph - N/A   Unknown
1:00 PM 78.3 °F 52.0 °F 40% 30.05 in - South 6.9 mph - N/A   Unknown
2:00 PM 79.7 °F 48.2 °F 33% 30.05 in - SSE 4.6 mph - N/A   Unknown
3:00 PM 80.8 °F 48.9 °F 33% 30.04 in - SSE 6.9 mph - N/A   Unknown
4:00 PM 81.0 °F 48.6 °F 32% 30.04 in - SSE 6.9 mph - N/A   Unknown
5:00 PM 79.9 °F 48.7 °F 34% 30.03 in - SE 6.9 mph - N/A   Unknown
6:00 PM 80 °F 49 °F 24% 30.02 in - SE 5.8 mph - -  
6:00 PM 79.5 °F 49.3 °F 35% 30.02 in - SE 5.8 mph - N/A   Unknown
7:00 PM 78.6 °F 48.2 °F 34% 30.02 in - SSE 6.9 mph - N/A   Unknown
8:00 PM 76.8 °F 47.5 °F 35% 30.02 in - SE 6.9 mph - N/A   Unknown
9:00 PM 76.3 °F 52.5 °F 43% 30.02 in - SE 3.5 mph - N/A   Unknown
10:00 PM 72.7 °F 50.9 °F 46% 30.01 in - SE 3.5 mph - N/A   Unknown
11:00 PM 69.1 °F 48.0 °F 47% 30.01 in - ESE 3.5 mph - N/A   Unknown